DECAYED

STARLINK-1739, 46363 (Decayed)

Orbit data source: Space-Track

STARLINK-1739, 46363 was a payload satellite owned by SpaceX/Seattle (US) in LEO that was launched on Thu, 03 Sep 2020 UTC via an FALCON 9 launch vehicle from the Air Force Eastern Test Range (AFETR). Payload-class satellites include a variety of spacecraft equipped with specific instruments for various scientific and technological missions. These include communications satellites like Starlink; space stations such as the ISS; scientific satellites like the Hubble; Earth observation satellites from companies like Planet Labs, Umbra, and HawkEye 360; GPS; miniature CubeSats for education and research; and military/defense satellites.

Not visible in the next 10 days
Identifier
46363, 2020-062AQ
Orbit
Decayed
Country
Flag of USUS
Related business
Manufacturer
SpaceX/Seattle
Mission
Decayed Commercial Communications
Bus & Motor
STARLINK, Unknown motor
Mass
260 kg wet, ~248 kg dry
Launch date (UTC)
2020-09-03 (5 years ago)
Launch vehicle
FALCON 9
Launch site
Air Force Eastern Test Range (AFETR)
Object type
Payload
Rocket body
Debris
Shape & HBR
Box + 1 Pan, 10.1 m
Radar Cross Section
13.562 m², Large (>1 m²)

Expand to show TLE details & history
Last TLE update: 8 months ago

TLE from 8 months ago
0 STARLINK-1739
1 46363U 20062AQ  25145.02368451  .16241053  12467-4  55409-3 0  9990
2 46363  53.0021 122.0814 0005062 258.3265 215.3420 16.44347722262497
Epoch: 2025-05-25T00:34Z
TLE epoch observation values (Epoch: 2025-05-25T00:34:06.341Z)
Latitude
47.17796°
Longitude
-3.24025°
Altitude
162.078 km
Speed
7.813 km/s
True Right ascension
16h 32m 34s
True Declination
46° 59' 27"
Sunlit
Object was in full shadow at epoch
Visualization orbit readout
Latitude
Unknown
Longitude
Unknown
Altitude
Unknown
Speed
Unknown
Apparent Right ascension
Unknown
Apparent Declination
Unknown
Sunlit
N/A
Visualization observer readout
Local Sidereal Time
00:50:37
Azimuth
Unknown
Elevation
Unknown
Doppler factor
Unknown
Orbital elements
Apogee altitude
157.865 km
Perigee altitude
151.251 km
Semi-major axis
6,532.695 km
Eccentricity
0.00051
Inclination
53.0021°
RAAN
122.0814°
Arg. of periapsis
258.3265°
True anomaly
215.30846°
Mean anomaly
215.342°
Eccentric anomaly
215.32523°
Mean motion
4.11059 °/min
Orbital period
87.58 mins
BSTAR
0.00055409
Loading maneuver chart data...
Computing Atmospheric mass density...
Loading historical data...
Loading historical data...
Loading historical data...
Loading historical data...
Loading historical data...
Loading historical data...
Loading historical data...

Documentation

Showing up to 5 results
|